Location: Étang Rond
(42.7927°N, 1.0661°E)
Time: 13:11:11
(UTC+00:00)

Cosmos 1802 Rocket - Visible Passes

Search period start: 14 February 2026 00:00
Search period end: 24 February 2026 00:00
Orbit: 954 x 1010 km, 82.9° (Epoch: 13 February)

Date Brightness Start Highest point End Pass type
(mag) Time Alt. Az. Time Alt. Az. Time Alt. Az.
14 Feb 6.3 05:17:17 10° SE 05:22:15 26° E 05:27:17 10° NNE visible
14 Feb 4.9 17:57:03 10° NNW 18:03:19 57° W 18:09:34 10° SSW visible
15 Feb 5.1 05:43:22 10° SSE 05:49:15 48° E 05:55:16 10° NNE visible
15 Feb 6.1 18:24:53 10° NNW 18:30:23 31° W 18:35:54 10° SW visible
16 Feb 7.1 04:29:23 10° ESE 04:31:59 13° ENE 04:34:36 10° NE visible
16 Feb 4.1 06:10:16 10° S 06:16:28 88° E 06:22:48 10° N visible
16 Feb 7.0 18:53:25 10° NW 18:57:16 17° W 19:01:07 10° WSW visible
17 Feb 6.3 04:53:54 10° SE 04:58:47 25° E 05:03:43 10° NNE visible
18 Feb 5.2 05:19:55 10° SSE 05:25:46 46° E 05:31:44 10° NNE visible
18 Feb 6.1 18:01:20 10° NNW 18:06:56 33° W 18:12:31 10° SSW visible
19 Feb 7.1 04:06:14 10° E 04:08:32 12° ENE 04:10:50 10° NE visible
19 Feb 4.1 05:46:45 10° S 05:52:57 84° E 05:59:19 10° N visible
19 Feb 6.9 18:29:46 10° NW 18:33:49 18° W 18:37:52 10° WSW visible
20 Feb 6.3 04:30:32 10° SE 04:35:19 24° E 04:40:09 10° NNE visible
20 Feb 4.2 06:14:16 10° SSW 06:20:21 54° WNW 06:26:33 10° N visible
21 Feb 5.2 04:56:28 10° SSE 05:02:17 44° E 05:08:13 10° NNE visible
22 Feb 7.1 03:43:10 10° E 03:45:05 11° ENE 03:47:00 10° ENE visible
22 Feb 4.2 05:23:14 10° S 05:29:27 80° E 05:35:49 10° N visible
22 Feb 6.9 18:06:09 10° NW 18:10:22 19° W 18:14:36 10° WSW visible
23 Feb 6.3 04:07:10 10° SE 04:11:50 23° E 04:16:34 10° NE visible
23 Feb 4.1 05:50:43 10° SSW 05:56:50 57° WNW 06:03:06 10° N visible
